Regional Weather Roundup
Issued by NWS

Home | Current Version | Previous Version | Text Only | Print | Product List | Glossary Off
Versions: 1 2 3 4 5 6 7 8 9 10 11 12 13 14 15 16 17 18 19 20 21 22 23 24 25 26 27 28 29 30 31 32 33 34 35 36 37 38 39 40 41 42 43 44 45 46 47 48 49 50

116
ASUS45 KBOU 051607
RWRCO

WEATHER ROUNDUP FOR COLORADO
NATIONAL WEATHER SERVICE DENVER/BOULDER CO
900 AM MST FRI FEB 05 2016

NOTE: "FAIR" INDICATES FEW OR NO CLOUDS BELOW 12000 FEET WITH NO
SIGNIFICANT WEATHER AND/OR OBSTRUCTIONS TO VISIBILITY.

COZ001>005-013-030-031-051700-
...NORTHWEST COLORADO...

CITY           SKY/WX    TMP DP  RH WIND       PRES   REMARKS
CRAIG          CLOUDY    11   8  88 SE3       30.46R
HAYDEN         CLOUDY    12   9  85 CALM      30.43R
MEEKER         LGT SNOW  14  11  87 CALM      30.46R FOG
MOUNT WERNER   NOT AVBL
STEAMBOAT SPGS CLOUDY     9   6  86 CALM      30.42R
WALDEN         CLOUDY     1  -4  78 S6        30.33R WCI -10
$$

COZ006>008-011-051700-
...WEST CENTRAL VALLEYS...

CITY           SKY/WX    TMP DP  RH WIND       PRES   REMARKS
GRAND JUNCTION CLOUDY    17  15  92 S3        30.56R
MONTROSE       CLOUDY    10   4  76 SE5       30.55R WCI   2
EAGLE          MOSUNNY    0  -4  85 CALM      30.50R
RIFLE          CLOUDY    12   8  84 W7        30.54R WCI   1
DELTA          CLOUDY    17  13  84 CALM      30.56S
NUCLA          LGT SNOW  12   9  85 E6        30.55R WCI   3
$$

COZ017>023-064>068-051700-
...SOUTHWEST COLORADO...

CITY           SKY/WX    TMP DP  RH WIND       PRES   REMARKS
DURANGO        CLOUDY     1  -3  83 E3        30.37R
CORTEZ         CLOUDY    12   5  73 E5        30.45R WCI   4
PAGOSA SPRINGS CLOUDY     6   4  89 CALM      30.34R
TELLURIDE      CLOUDY    13   5  71 E3        30.35R
WOLF CREEK PAS CLOUDY     1  -6  71 NE21      30.21R WCI -20
$$

COZ009-010-012-014-032>034-037-058>063-051700-
...CENTRAL COLORADO...

CITY           SKY/WX    TMP DP  RH WIND       PRES   REMARKS
ASPEN          CLOUDY     8   7  95 CALM      30.38R
BUENA VISTA    CLOUDY    18   2  50 NW24G32   30.29R WCI   0
COPPER MTN     CLOUDY     3  -4  72 W12       30.19R WCI -13
BERTHOUD PASS  CLOUDY    -4 -15  59 NW18      30.14S WCI -26
COTTONWOOD PAS CLOUDY    14   1  57 SE5       30.24R WCI   6
GUNNISON       CLOUDY   -13 N/A N/A CALM      30.45R
KREMMLING      SNOW      -6 -11  77 CALM      30.42R VSB 1/2
LEADVILLE      CLOUDY     7  -1  70 NW12      30.25R WCI  -8
MONARCH PASS   CLOUDY     1  -4  78 MISG      30.27R
SALIDA         CLOUDY    18   3  53 NW8       30.39S WCI   7
SUNLIGHT       CLOUDY   N/A N/A N/A CALM        N/A  HAZE
WILKERSON PASS CLOUDY     7  -2  66 N8        30.19R WCI  -6
$$

COZ069>075-051700-
...SAN LUIS VALLEY/SANGRE DE CRISTO MOUNTAINS...

CITY           SKY/WX    TMP DP  RH WIND       PRES   REMARKS
ALAMOSA        CLOUDY     2  -5  72 SW3       30.31R
LA VETA PASS   CLOUDY     9   1  72 MISG      30.19R
SAGUACHE       CLOUDY    16   3  57 NW24      30.31R WCI  -3
$$

COZ035-036-038>040-051700-
...NORTHERN COLORADO FRONT RANGE...

CITY           SKY/WX    TMP DP  RH WIND       PRES   REMARKS
DENVER INTL AP MOSUNNY   25   9  50 SW7       30.30R WCI  17
DMNS CITY PARK   N/A     36   6  28 SW1G8     30.31S
AURORA         MOSUNNY   25   9  52 W3        30.31R
FRONT RANGE AP PTSUNNY   23   9  54 MISG      30.30R
ERIE MUNI ARPT SUNNY     27   7  44 CALM      30.30S
BOULDER MUN AP SUNNY     32   3  29 SW3       30.30R
CENTENNIAL     MOSUNNY   24   7  48 W5        30.30R WCI  18
BROOMFIELD     PTSUNNY   28   7  40 W15       30.29R WCI  17
FORT COLLINS   CLOUDY    25   9  50 NE5       30.31R WCI  19
LONGMONT       CLOUDY    25   8  48 CALM      30.32S
$$

COZ041-046-047-076>085-087-088-051700-
...PIKES PEAK/PALMER DIVIDE AND SOUTHERN FOOTHILLS...

CITY           SKY/WX    TMP DP  RH WIND       PRES   REMARKS
COLO. SPRINGS  CLOUDY    23   6  48 N10       30.29R WCI  12
A. F. ACADEMY  CLOUDY    14   5  67 N7        30.26R WCI   4
SCHRIEVER AFB  FAIR      22   7  52 NW12      30.29R WCI  11
ELLICOTT       NOT AVBL
FALCON         CLOUDY    22   6  49 NW6       30.27R WCI  15
FORT CARSON    MOSUNNY   24  11  57 W2        30.29R
LIMON          CLOUDY    20  12  71 N14       30.29R WCI   7
MONUMENT HILL  SUNNY     14   3  62 NW7       30.28R WCI   4
TRINIDAD       LGT SNOW  26  21  81 N17G26    30.30R VSB 1   WCI  13
$$

COZ042>045-048>051-090-091-051700-
...NORTHEAST COLORADO...

CITY           SKY/WX    TMP DP  RH WIND       PRES   REMARKS
GREELEY ARPT   SUNNY     18  10  73 CALM      30.33R
AKRON          SUNNY     19  13  77 W13       30.29R WCI   6
BURLINGTON     SUNNY     25  18  74 NW9       30.29R WCI  15
WRAY           MOSUNNY   28  18  66 W10       30.30R WCI  19
STERLING       PTSUNNY   27  14  59 NW12      30.30R WCI  16
HOLYOKE        SUNNY     34  21  60 NW13G22   30.28R WCI  25
FORT MORGAN    CLOUDY    18  11  73 W7        30.31S WCI   9
$$

COZ086-089-092>099-051700-
...SOUTHEAST COLORADO...

CITY           SKY/WX    TMP DP  RH WIND       PRES   REMARKS
PUEBLO         PTSUNNY   28  22  78 NW6       30.33R WCI  22
LA JUNTA       CLOUDY    31  26  82 MISG      30.32R
LAMAR          CLOUDY    34  27  75 N16       30.30R WCI  24
SPRINGFIELD      N/A     31  24  75 N25G31    30.24S WCI  17
$$




USA.gov is the U.S. government's official web portal to all federal, state and local government web resources and services.